User: anonymous   Login
Location: Burgberg
(50.1428°N, 11.0671°E)
Time: 01:10:17
(UTC+00:00)
Language:

STARLINK-1025 - Orbit

View from above orbital plane
View from above orbital plane
View from above satellite
View from above satellite

Ground track
Ground track

The orbit data is extracted from the following two-line orbital elements,

1 44730U 19074T   20091.91667824  .00058181  00000-0  39786-2 0  9992
2 44730  53.0002 202.6172 0001210  73.7095 102.5972 15.05588000 22063
Epoch (UTC): 31 March 2020 22:00:01
Eccentricity: 0.0001210
inclination: 53.0002°
perigee height: 549 km
apogee height: 550 km
right ascension of ascending node: 202.6172°
argument of perigee: 73.7095°
revolutions per day: 15.05588000
mean anomaly at epoch: 102.5972°
orbit number at epoch: 2206

The dashed part of the orbit path shows where the satellite is in the earth's shadow,  

DLR